FW1921 Weather Reports


time (UTC)temp
C
wind
direction
speed
KPH
gust
KPH
rain 1hr
cm
rain 24hr
cm
rain mn
cm
humidity
%
barometer
mb
20260510093521 12 242 0.0 4.8 0.00 0.00 0.00 76 1014.7
20260510093024 12 220 0.0 4.8 0.00 0.00 0.00 75 1014.7
20260510092518 13 113 0.0 3.2 0.00 0.00 0.00 74 1014.7
20260510092016 13 44 0.0 3.2 0.00 0.00 0.00 73 1014.6
20260510091515 13 86 1.6 4.8 0.00 0.00 0.00 73 1014.5
20260510091015 13 321 1.6 4.8 0.00 0.00 0.00 72 1014.4
20260510090515 13 131 1.6 8.0 0.00 0.00 0.00 72 1014.4
20260510090014 13 219 3.2 8.0 0.00 0.00 0.00 72 1014.4
20260510085513 13 1 3.2 8.0 0.00 0.00 0.00 72 1014.4
20260510085013 13 260 3.2 8.0 0.00 0.00 0.00 73 1014.4
20260510084513 13 189 1.6 6.4 0.00 0.00 0.00 73 1014.4
20260510084016 13 238 3.2 6.4 0.00 0.00 0.00 73 1014.5
20260510083516 13 321 1.6 4.8 0.00 0.00 0.00 72 1014.5
20260510083013 13 1 1.6 6.4 0.00 0.00 0.00 72 1014.5
20260510082514 13 216 1.6 9.7 0.00 0.00 0.00 72 1014.5
20260510082015 13 238 1.6 9.7 0.00 0.00 0.00 72 1014.5
20260510081511 13 304 3.2 8.0 0.00 0.00 0.00 72 1014.5
20260510081011 13 249 3.2 11.3 0.00 0.00 0.00 73 1014.5
20260510080514 13 231 1.6 11.3 0.00 0.00 0.00 73 1014.5
20260510080009 13 290 1.6 8.0 0.00 0.00 0.00 73 1014.4
20260510075514 13 260 1.6 4.8 0.00 0.00 0.00 72 1014.3
20260510075008 13 282 1.6 8.0 0.00 0.00 0.00 72 1014.3
20260510074508 13 233 3.2 8.0 0.00 0.00 0.00 72 1014.3
20260510074008 13 298 1.6 8.0 0.00 0.00 0.00 72 1014.2
20260510073513 13 330 1.6 6.4 0.00 0.00 0.00 72 1014.2
20260510073007 13 260 1.6 6.4 0.00 0.00 0.00 72 1014.2
20260510072507 13 314 1.6 6.4 0.00 0.00 0.00 72 1014.2
20260510072009 13 304 1.6 8.0 0.00 0.00 0.00 72 1014.2
20260510071507 13 321 3.2 8.0 0.00 0.00 0.00 71 1014.3
20260510071007 13 226 1.6 6.4 0.00 0.00 0.00 71 1014.2
20260510070506 13 1 1.6 6.4 0.00 0.00 0.00 71 1014.3
20260510070005 14 297 1.6 6.4 0.00 0.00 0.00 71 1014.3
20260510065505 14 278 1.6 4.8 0.00 0.00 0.00 71 1014.1
20260510065005 14 232 0.0 9.7 0.00 0.00 0.00 70 1014.1
20260510064504 14 13 3.2 9.7 0.00 0.00 0.00 71 1014.0
20260510064003 14 337 3.2 9.7 0.00 0.00 0.00 71 1013.9
20260510063504 13 245 4.8 9.7 0.00 0.00 0.00 71 1013.9
20260510063003 13 37 3.2 6.4 0.00 0.00 0.00 71 1014.0
20260510062503 13 1 1.6 4.8 0.00 0.00 0.00 70 1014.1
20260510062002 13 1 0.0 6.4 0.00 0.00 0.00 70 1014.0
20260510061502 13 113 1.6 6.4 0.00 0.00 0.00 70 1014.0
20260510061004 13 260 1.6 4.8 0.00 0.00 0.00 70 1014.0
20260510060503 13 44 1.6 6.4 0.00 0.00 0.00 70 1014.0
20260510060004 13 321 1.6 6.4 0.00 0.00 0.00 70 1014.0
20260510055500 13 333 1.6 6.4 0.00 0.00 0.00 70 1014.1
20260510055100 13 86 1.6 4.8 0.00 0.00 0.00 70 1014.1
20260510054559 14 260 1.6 6.4 0.00 0.00 0.00 69 1014.0
20260510054058 14 1 0.0 6.4 0.00 0.00 0.00 68 1014.1
20260510053556 14 229 0.0 4.8 0.00 0.00 0.00 67 1014.1
20260510053056 14 44 0.0 6.4 0.00 0.00 0.00 67 1013.9
20260510052557 14 1 1.6 6.4 0.00 0.00 0.00 67 1014.0
20260510052055 14 321 1.6 6.4 0.00 0.00 0.00 67 1013.9
20260510051601 14 271 1.6 6.4 0.00 0.00 0.00 67 1013.9
20260510051054 14 231 1.6 6.4 0.00 0.00 0.00 66 1013.9
20260510050553 14 219 0.0 6.4 0.00 0.00 0.00 66 1014.0
20260510050053 14 220 1.6 6.4 0.00 0.00 0.00 66 1014.1
20260510045553 14 293 0.0 8.0 0.00 0.00 0.00 66 1014.1
20260510045052 14 1 1.6 8.0 0.00 0.00 0.00 65 1014.1
20260510044555 15 245 1.6 8.0 0.00 0.00 0.00 65 1014.1
20260510044052 15 226 1.6 8.0 0.00 0.00 0.00 65 1014.1
20260510043550 15 326 3.2 8.0 0.00 0.00 0.00 64 1014.2
20260510043058 15 242 3.2 9.7 0.00 0.00 0.00 64 1014.1
20260510042549 15 278 3.2 9.7 0.00 0.00 0.00 64 1014.3
20260510042048 15 20 1.6 8.0 0.00 0.00 0.00 64 1014.3
20260510041606 15 216 0.0 8.0 0.00 0.00 0.00 64 1014.3
20260510041048 15 304 3.2 8.0 0.00 0.00 0.00 64 1014.4
20260510040546 15 242 3.2 9.7 0.00 0.00 0.00 64 1014.4
20260510040045 15 245 3.2 9.7 0.00 0.00 0.00 64 1014.3
20260510035544 15 231 3.2 8.0 0.00 0.00 0.00 64 1014.3
20260510035044 15 203 1.6 9.7 0.00 0.00 0.00 64 1014.3
20260510034547 15 24 3.2 9.7 0.00 0.00 0.00 65 1014.3
20260510034047 14 245 3.2 8.0 0.00 0.00 0.00 65 1014.2
20260510033547 14 1 1.6 6.4 0.00 0.00 0.00 65 1014.3
20260510033045 15 13 1.6 9.7 0.00 0.00 0.00 65 1014.3
20260510032546 15 219 1.6 9.7 0.00 0.00 0.00 65 1014.3
20260510032046 15 1 0.0 6.4 0.00 0.00 0.00 64 1014.3
20260510031543 15 245 1.6 6.4 0.00 0.00 0.00 64 1014.2
20260510031045 15 172 1.6 8.0 0.00 0.00 0.00 64 1014.2
20260510030546 15 216 3.2 9.7 0.00 0.00 0.00 64 1014.3
20260510030049 15 233 3.2 9.7 0.00 0.00 0.00 64 1014.3
20260510025542 15 221 1.6 8.0 0.00 0.00 0.00 65 1014.2
20260510025041 15 330 1.6 8.0 0.00 0.00 0.00 64 1014.1
20260510024552 15 206 1.6 6.4 0.00 0.00 0.00 64 1013.9
20260510024045 15 260 3.2 6.4 0.00 0.00 0.00 63 1013.9
20260510023542 15 226 1.6 6.4 0.00 0.00 0.00 63 1013.9
20260510023041 15 216 0.0 8.0 0.00 0.00 0.00 62 1013.9
20260510022546 15 140 0.0 8.0 0.00 0.00 0.00 62 1013.8
20260510022041 15 172 0.0 8.0 0.00 0.00 0.00 62 1013.6
20260510021541 15 304 3.2 8.0 0.00 0.00 0.00 63 1013.6
20260510021040 15 232 1.6 8.0 0.00 0.00 0.00 63 1013.4
20260510020540 15 307 3.2 8.0 0.00 0.00 0.00 63 1013.3
20260510020048 15 304 1.6 6.4 0.00 0.00 0.00 63 1013.3
20260510015540 16 244 1.6 4.8 0.00 0.00 0.00 63 1013.3
20260510015039 16 86 0.0 6.4 0.00 0.00 0.00 61 1013.2
20260510014540 16 131 1.6 6.4 0.00 0.00 0.00 61 1013.2
20260510014039 16 260 0.0 9.7 0.00 0.00 0.00 61 1013.0
20260510013539 16 1 1.6 9.7 0.00 0.00 0.00 62 1012.9
20260510013046 16 17 3.2 9.7 0.00 0.00 0.00 63 1012.7
20260510012543 16 328 1.6 4.8 0.00 0.00 0.00 63 1012.7
20260510012039 16 316 1.6 6.4 0.00 0.00 0.00 61 1012.6
20260510011540 16 316 1.6 6.4 0.00 0.00 0.00 61 1012.6
20260510011038 16 242 0.0 6.4 0.00 0.00 0.00 61 1012.6
20260510010539 16 260 1.6 6.4 0.00 0.00 0.00 61 1012.6
20260510010056 16 240 1.6 4.8 0.00 0.00 0.00 61 1012.4
20260510005538 16 260 1.6 4.8 0.00 0.00 0.00 62 1012.4
20260510005037 16 216 1.6 3.2 0.00 0.00 0.00 62 1012.2
20260510004537 16 321 0.0 6.4 0.00 0.00 0.00 63 1012.2
20260510004037 17 314 1.6 6.4 0.00 0.00 0.00 63 1012.1
20260510003537 17 215 0.0 3.2 0.00 0.00 0.00 62 1012.0
20260510003036 17 147 0.0 6.4 0.00 0.00 0.00 62 1011.9
20260510002537 17 321 0.0 6.4 0.00 0.00 0.00 63 1011.7
20260510002036 17 271 1.6 9.7 0.00 0.00 0.00 63 1011.7
20260510001536 17 44 3.2 9.7 0.00 0.00 0.00 62 1011.6
20260510001040 18 172 1.6 8.0 0.00 0.00 0.00 63 1011.5
20260510000538 18 226 1.6 8.0 0.00 0.00 0.00 63 1011.5
20260510000041 18 212 1.6 4.8 0.00 0.00 0.00 64 1011.5
20260509235535 18 233 1.6 3.2 0.00 0.00 0.00 65 1011.4
20260509235035 18 27 0.0 3.2 0.00 0.00 0.00 65 1011.4
20260509234550 19 61 1.6 4.8 0.00 0.00 0.00 65 1011.4
20260509234037 19 19 0.0 4.8 0.00 0.00 0.00 65 1011.3
20260509233538 19 1 1.6 4.8 0.00 0.00 0.00 64 1011.3
20260509233035 19 224 0.0 4.8 0.00 0.00 0.00 64 1011.4
20260509232538 20 44 1.6 6.4 0.00 0.00 0.00 64 1011.3
20260509232034 20 44 1.6 8.0 0.00 0.00 0.00 63 1011.3
20260509231535 20 233 3.2 8.0 0.00 0.00 0.00 64 1011.3
20260509231033 20 172 1.6 8.0 0.00 0.00 0.00 66 1011.3
20260509230537 19 215 0.0 4.8 0.00 0.00 0.00 69 1011.3
20260509230033 18 250 1.6 4.8 0.00 0.00 0.00 67 1011.3
20260509225533 19 23 0.0 4.8 0.00 0.00 0.00 66 1011.2
20260509225034 19 304 0.0 4.8 0.00 0.00 0.00 66 1011.3
20260509224533 19 44 1.6 6.4 0.00 0.00 0.00 66 1011.1
20260509224033 19 44 1.6 8.0 0.00 0.00 0.00 65 1011.2
20260509223533 19 44 1.6 8.0 0.00 0.00 0.00 66 1011.2
20260509223032 19 242 1.6 6.4 0.00 0.00 0.00 65 1011.3
20260509222532 19 147 0.0 4.8 0.00 0.00 0.00 66 1011.2
20260509222035 19 131 0.0 4.8 0.00 0.00 0.00 67 1011.3
20260509221557 19 233 0.0 6.4 0.00 0.00 0.00 65 1011.3
20260509221032 20 172 1.6 6.4 0.00 0.00 0.00 65 1011.3
20260509220531 20 120 1.6 6.4 0.00 0.00 0.00 65 1011.3
20260509220032 20 155 1.6 6.4 0.00 0.00 0.00 66 1011.3
20260509215531 20 199 1.6 12.9 0.00 0.00 0.00 64 1011.3
20260509215030 20 159 1.6 12.9 0.00 0.00 0.00 63 1011.3
20260509214530 20 260 1.6 4.8 0.00 0.00 0.00 62 1011.3
20260509214030 20 194 0.0 8.0 0.00 0.00 0.00 64 1011.3
20260509213531 20 131 1.6 8.0 0.00 0.00 0.00 62 1011.2
20260509213031 20 137 1.6 8.0 0.00 0.00 0.00 64 1011.2
20260509212534 20 86 1.6 4.8 0.00 0.00 0.00 67 1011.1
20260509212029 19 215 0.0 6.4 0.00 0.00 0.00 66 1011.0
20260509211530 19 172 3.2 6.4 0.00 0.00 0.00 64 1011.2
20260509211030 19 159 1.6 6.4 0.00 0.00 0.00 64 1011.1
20260509210530 19 153 1.6 14.5 0.00 0.00 0.00 65 1011.1
20260509210028 19 77 1.6 14.5 0.00 0.00 0.00 63 1011.1
20260509205528 19 140 1.6 6.4 0.00 0.00 0.00 63 1011.0
20260509205029 19 277 1.6 8.0 0.00 0.00 0.00 63 1011.0
20260509204529 19 226 3.2 8.0 0.00 0.00 0.00 63 1010.9
20260509204028 19 212 1.6 11.3 0.00 0.00 0.00 61 1011.0
20260509203528 19 172 4.8 11.3 0.00 0.00 0.00 60 1010.8
20260509203030 19 13 3.2 8.0 0.00 0.00 0.00 60 1010.8
20260509202529 20 137 3.2 8.0 0.00 0.00 0.00 57 1010.7
20260509202030 20 60 3.2 11.3 0.00 0.00 0.00 58 1010.7
20260509201527 20 101 3.2 12.9 0.00 0.00 0.00 57 1010.7
20260509201032 21 228 4.8 14.5 0.00 0.00 0.00 55 1010.9
20260509200530 21 259 1.6 14.5 0.00 0.00 0.00 59 1010.8
20260509200025 21 86 1.6 9.7 0.00 0.00 0.00 60 1010.7
20260509195525 21 105 3.2 12.9 0.00 0.00 0.00 61 1010.8
20260509195026 20 286 3.2 12.9 0.00 0.00 0.00 61 1010.9
20260509194524 20 141 4.8 11.3 0.00 0.00 0.00 59 1010.9
20260509194023 20 100 3.2 12.9 0.00 0.00 0.00 62 1011.0
20260509193526 20 251 4.8 12.9 0.00 0.00 0.00 59 1011.0
20260509193022 20 249 4.8 11.3 0.00 0.00 0.00 59 1011.0
20260509192522 20 290 4.8 12.9 0.00 0.00 0.00 61 1011.2
20260509192036 20 137 4.8 12.9 0.00 0.00 0.00 59 1011.3
20260509191522 20 238 3.2 11.3 0.00 0.00 0.00 58 1011.4
20260509191022 20 237 3.2 11.3 0.00 0.00 0.00 57 1011.4
20260509190525 21 250 3.2 12.9 0.00 0.00 0.00 60 1011.5
20260509190035 21 158 3.2 12.9 0.00 0.00 0.00 58 1011.5
20260509185523 21 226 3.2 12.9 0.00 0.00 0.00 60 1011.4
20260509185019 21 259 1.6 16.1 0.00 0.00 0.00 63 1011.5
20260509184528 20 313 4.8 16.1 0.00 0.00 0.00 60 1011.4
20260509184018 20 131 3.2 12.9 0.00 0.00 0.00 62 1011.7
20260509183518 20 99 3.2 8.0 0.00 0.00 0.00 62 1011.8
20260509183026 20 277 1.6 9.7 0.00 0.00 0.00 64 1011.8
20260509182519 20 191 3.2 12.9 0.00 0.00 0.00 62 1011.9
20260509182019 20 117 3.2 12.9 0.00 0.00 0.00 60 1011.9
20260509181518 20 277 1.6 9.7 0.00 0.00 0.00 61 1011.7
20260509181021 21 151 3.2 14.5 0.00 0.00 0.00 58 1011.8
20260509180519 21 92 3.2 14.5 0.00 0.00 0.00 58 1011.8
20260509180015 21 81 1.6 11.3 0.00 0.00 0.00 60 1011.8
20260509175515 21 15 3.2 11.3 0.00 0.00 0.00 64 1011.8
20260509175016 20 233 3.2 12.9 0.00 0.00 0.00 64 1011.8
20260509174511 20 193 1.6 14.5 0.00 0.00 0.00 65 1012.0
20260509174011 20 131 3.2 14.5 0.00 0.00 0.00 65 1012.1
20260509173510 20 146 3.2 8.0 0.00 0.00 0.00 65 1012.1
20260509173012 19 144 3.2 8.0 0.00 0.00 0.00 67 1012.2
20260509172507 19 146 1.6 9.7 0.00 0.00 0.00 63 1012.2
20260509172006 19 139 3.2 9.7 0.00 0.00 0.00 65 1012.3
20260509171506 19 154 3.2 11.3 0.00 0.00 0.00 62 1012.4
20260509171004 19 199 4.8 11.3 0.00 0.00 0.00 66 1012.5
20260509170502 18 252 3.2 11.3 0.00 0.00 0.00 66 1012.5
20260509170006 18 224 3.2 12.9 0.00 0.00 0.00 65 1012.6
20260509165502 17 110 3.2 14.5 0.00 0.00 0.00 64 1012.7
20260509165003 17 217 4.8 14.5 0.00 0.00 0.00 65 1012.9
20260509164503 17 205 3.2 14.5 0.00 0.00 0.00 68 1012.9
20260509164002 18 248 4.8 14.5 0.00 0.00 0.00 64 1012.9
20260509163601 18 124 3.2 14.5 0.00 0.00 0.00 66 1012.7
20260509163203 18 245 4.8 9.7 0.00 0.00 0.00 69 1012.7
20260509162601 17 101 1.6 8.0 0.00 0.00 0.00 71 1012.7
20260509162057 17 147 1.6 8.0 0.00 0.00 0.00 71 1013.0
20260509161558 17 172 1.6 6.4 0.00 0.00 0.00 74 1013.0
20260509161055 16 135 0.0 8.0 0.00 0.00 0.00 74 1013.1
20260509160555 16 260 3.2 8.0 0.00 0.00 0.00 72 1013.1
20260509160056 16 141 1.6 9.7 0.00 0.00 0.00 74 1013.1
20260509155556 16 199 1.6 8.0 0.00 0.00 0.00 73 1012.9
20260509155054 16 44 1.6 8.0 0.00 0.00 0.00 71 1013.0
20260509154554 16 70 1.6 8.0 0.00 0.00 0.00 72 1012.8
20260509154054 17 235 1.6 8.0 0.00 0.00 0.00 72 1013.0
20260509153553 16 268 1.6 6.4 0.00 0.00 0.00 73 1012.8
20260509153052 16 260 1.6 9.7 0.00 0.00 0.00 73 1013.0
20260509152551 16 242 3.2 12.9 0.00 0.00 0.00 75 1013.1
20260509152051 16 172 3.2 12.9 0.00 0.00 0.00 74 1013.1
20260509151557 16 195 1.6 11.3 0.00 0.00 0.00 73 1013.2
20260509151051 16 70 3.2 11.3 0.00 0.00 0.00 73 1013.1
20260509150549 16 233 3.2 12.9 0.00 0.00 0.00 73 1013.1
20260509150049 16 226 3.2 12.9 0.00 0.00 0.00 73 1013.3
20260509145549 15 277 1.6 8.0 0.00 0.00 0.00 74 1013.4
20260509145049 15 260 3.2 9.7 0.00 0.00 0.00 74 1013.2
20260509144551 15 163 3.2 9.7 0.00 0.00 0.00 73 1013.2
20260509144048 16 81 3.2 11.3 0.00 0.00 0.00 72 1013.2
20260509143548 16 260 3.2 11.3 0.00 0.00 0.00 72 1013.1
20260509143047 16 165 3.2 9.7 0.00 0.00 0.00 71 1013.0
20260509142546 16 128 3.2 9.7 0.00 0.00 0.00 74 1013.0
20260509142045 15 229 1.6 11.3 0.00 0.00 0.00 72 1013.0
20260509141548 15 127 1.6 16.1 0.00 0.00 0.00 74 1013.1
20260509141042 15 108 3.2 16.1 0.00 0.00 0.00 73 1012.8
20260509140540 15 140 3.2 11.3 0.00 0.00 0.00 75 1012.8
20260509140039 15 311 1.6 8.0 0.00 0.00 0.00 76 1012.9
20260509135538 14 138 1.6 6.4 0.00 0.00 0.00 77 1012.9
20260509135036 14 151 1.6 6.4 0.00 0.00 0.00 76 1012.9
20260509134548 14 122 1.6 6.4 0.00 0.00 0.00 76 1013.1
20260509134038 13 195 1.6 6.4 0.00 0.00 0.00 76 1013.2
20260509133534 13 215 1.6 8.0 0.00 0.00 0.00 75 1013.3
20260509133034 13 232 1.6 9.7 0.00 0.00 0.00 76 1013.5
20260509132530 13 304 3.2 9.7 0.00 0.00 0.00 76 1013.6
20260509132028 13 240 0.0 8.0 0.00 0.00 0.00 78 1013.4
20260509131543 13 1 1.6 8.0 0.00 0.00 0.00 77 1013.6
20260509131025 12 232 3.2 8.0 0.00 0.00 0.00 78 1013.5
20260509130527 12 244 1.6 8.0 0.00 0.00 0.00 77 1013.5
20260509130040 12 286 1.6 8.0 0.00 0.00 0.00 77 1013.7
20260509125522 12 74 0.0 8.0 0.00 0.00 0.00 77 1013.8
20260509125022 12 209 1.6 8.0 0.00 0.00 0.00 76 1013.8
20260509124527 12 44 1.6 8.0 0.00 0.00 0.00 76 1013.8
20260509124018 11 209 1.6 9.7 0.00 0.00 0.00 74 1013.9
20260509123517 11 216 0.0 9.7 0.00 0.00 0.00 73 1013.9
20260509123024 11 172 1.6 4.8 0.00 0.00 0.00 72 1014.0
20260509122513 11 172 1.6 6.4 0.00 0.00 0.00 72 1014.0
20260509122013 11 139 1.6 6.4 0.00 0.00 0.00 72 1014.0
20260509121517 11 321 1.6 4.8 0.00 0.00 0.00 73 1013.9
20260509121012 11 311 1.6 4.8 0.00 0.00 0.00 74 1013.9
20260509120516 11 321 1.6 4.8 0.00 0.00 0.00 74 1013.7
20260509120110 11 216 1.6 4.8 0.00 0.00 0.00 73 1013.7
20260509115509 11 321 1.6 6.4 0.00 0.00 0.00 73 1013.7
20260509115007 11 231 1.6 6.4 0.00 0.00 0.00 73 1013.9
20260509114506 11 172 1.6 4.8 0.00 0.00 0.00 72 1014.0
20260509114005 11 224 1.6 4.8 0.00 0.00 0.00 72 1014.0
20260509113504 11 278 0.0 4.8 0.00 0.00 0.00 72 1013.8
20260509113003 11 1 0.0 4.8 0.00 0.00 0.00 71 1013.9
20260509112501 11 304 0.0 4.8 0.00 0.00 0.00 72 1013.7
20260509112100 11 229 1.6 4.8 0.00 0.00 0.00 72 1013.7
20260509111605 11 290 0.0 4.8 0.00 0.00 0.00 72 1013.6
20260509111058 11 268 0.0 4.8 0.00 0.00 0.00 72 1013.6
20260509110556 10 304 0.0 4.8 0.00 0.00 0.00 71 1013.6
20260509110105 10 44 0.0 4.8 0.00 0.00 0.00 71 1013.6
20260509105556 10 44 1.6 6.4 0.00 0.00 0.00 72 1013.5
20260509105053 10 216 1.6 6.4 0.00 0.00 0.00 72 1013.5
20260509104557 10 86 1.6 4.8 0.00 0.00 0.00 72 1013.4
20260509104051 10 304 1.6 4.8 0.00 0.00 0.00 73 1013.3
20260509103549 10 233 0.0 3.2 0.00 0.00 0.00 72 1013.3
20260509103048 10 304 0.0 3.2 0.00 0.00 0.00 72 1013.3
20260509102548 10 261 1.6 4.8 0.00 0.00 0.00 71 1013.3
20260509102047 10 224 0.0 4.8 0.00 0.00 0.00 71 1013.4
20260509101547 10 261 0.0 4.8 0.00 0.00 0.00 71 1013.4
20260509101050 10 216 0.0 4.8 0.00 0.00 0.00 70 1013.5
20260509100545 10 172 0.0 3.2 0.00 0.00 0.00 69 1013.5
20260509100045 10 44 0.0 4.8 0.00 0.00 0.00 69 1013.5
20260509095547 10 147 0.0 4.8 0.00 0.00 0.00 69 1013.5
20260509095044 10 222 1.6 4.8 0.00 0.00 0.00 69 1013.5
20260509094544 10 245 1.6 3.2 0.00 0.00 0.00 69 1013.5
20260509094044 10 233 0.0 3.2 0.00 0.00 0.00 69 1013.7